Regional Weather Roundup
Issued by NWS Midland/Odessa, TX

Skip options and go directly to product.
Home | Oldest Version | Previous Version | Current Version | All | Text Only | Save Text | Print | Product List | Glossary Off

Skip product version selection by date and time.   

812
ASUS44 KMAF 302010
RWRMAF
MIDLAND AREA WEATHER ROUNDUP
NATIONAL WEATHER SERVICE MIDLAND TX
300 PM CDT FRI SEP 30 2016

...IN SOUTHWEST TEXAS AND SOUTHEAST NEW MEXICO...

CITY           SKY/WX    TMP DP  RH WIND       PRES   REMARKS
ALPINE         CLOUDY    72  58  62 SW7       30.30F
ANDREWS        FAIR      76  51  40 S7        30.20F
ARTESIA        CLOUDY    70  57  64 S17       30.18F
BIG SPRING     CLOUDY    78  49  36 SE7       30.21F
CARLSBAD       LGT RAIN  68  57  68 SE10      30.16F
DRYDEN           N/A     74  53  48 E7        30.17F
FORT STOCKTON  SUNNY     79  56  45 VRB7      30.18F
GUAD PASS      CLOUDY    68  57  68 VRB5      30.29F
HOBBS          MOSUNNY   73  50  43 S14       30.21F
MARFA          CLOUDY    65  59  81 W14       30.30F
MIDLAND AIRPK  CLOUDY    80  47  31 SW9       30.19F
MIDLAND INTL   CLOUDY    78  49  35 S7        30.19F
ODESSA         SUNNY     78  49  35 VRB3      30.20F
PECOS          CLOUDY    79  55  44 CALM      30.17F
PRESIDIO       CLOUDY    78  62  57 W17       30.16F
SEMINOLE       SUNNY     75  51  43 S10G18    30.20F
SNYDER           N/A     73  51  46 S3        30.19F
WINK           CLOUDY    78  51  38 S8        30.17F
$$
...OTHER STATIONS IN TEXAS...

CITY           SKY/WX    TMP DP  RH WIND       PRES   REMARKS
ABILENE        SUNNY     75  51  43 S5        30.19F
AMARILLO       SUNNY     81  49  32 S18G29    30.16F
AUSTIN         MOSUNNY   79  50  36 CALM      30.13F
BROWNSVILLE    PTSUNNY   87  69  54 NE12      30.05F
CORPUS CHRISTI MOSUNNY   85  54  34 NE7       30.09F
DALLAS FTW     MOSUNNY   78  46  32 VRB3      30.13F
DEL RIO        MOSUNNY   77  55  46 SE3       30.14F
EL PASO        MOSUNNY   71  59  65 S8        30.20F
HOUSTON INT    MOSUNNY   81  53  37 CALM      30.10F
LUBBOCK        MOSUNNY   76  49  38 S12G23    30.19F
SAN ANGELO     SUNNY     78  53  41 N6        30.18F
SAN ANTONIO    MOSUNNY   78  52  40 SE8       30.14F
WACO           SUNNY     81  48  31 VRB7      30.13F
WICHITA FALLS  NOT AVBL
$$
...OTHER LOCATIONS IN NEW MEXICO...

CITY           SKY/WX    TMP DP  RH WIND       PRES   REMARKS
ALAMAGORDO     SUNNY     72  57  60 SW6       30.22F
ALBUQUERQUE    MOSUNNY   71  50  47 VRB5      30.25F
CANNON AFB     PTSUNNY   78  50  38 SW13      30.18F
CLOVIS         MOSUNNY   79  52  38 S15G22    30.18F
HOLLOMAN AFB   SUNNY     72  60  64 VRB6      30.19F
ROSWELL        CLOUDY    72  52  49 S14       30.19F
RUIDOSO        CLOUDY    66  54  63 W6        30.34F
SANTA FE       CLOUDY    75  45  34 VRB6      30.26F
TRUTH OR CONSE MOSUNNY   73  55  53 S9        30.22F
TUCUMCARI      MOSUNNY   82  50  32 S9G25     30.12F
$$

  • National Weather Service
  • Southern Region Headquarters
  • 819 Taylor Street, Room 10A06
  • Fort Worth, TX 76102
  • Page Author: NWS Fort Worth
  • Web Master: SR-SRH.Webmaster@noaa.gov
  •  
  • Page last modified: 30-Sep-2016 6:36 PM UTC
USA.gov is the U.S. government's official web portal to all federal, state and local government web resources and services.